Location: American Red Cross Willamette Chapter Headquarters
(44.9538°N, 123.0532°W)
Time: 00:58:42
(UTC+00:00)

Daily predictions for brighter satellites

Satellite Brightness Start Highest point End
(mag) Time Altitude Azimuth Time Altitude Azimuth Time Altitude Azimuth
BREEZE M DEB (TANK) 4.3 03:58:53 10° WNW 04:03:24 67° SSW 04:19:37 10° SE
USA 229 DEB 3.7 04:10:47 10° SSW 04:17:10 63° ESE 04:23:53 10° NE
USA 229 3.7 04:10:55 10° SSW 04:17:17 62° ESE 04:23:59 10° NE
Cosmos 1464 Rocket 4.2 04:11:42 10° N 04:18:06 89° WSW 04:24:29 10° S
STARLINK-1218 4.4 04:16:40 10° SSW 04:20:17 30° SE 04:23:54 10° ENE
STARLINK-1155 3.6 04:16:20 10° WNW 04:20:29 89° SW 04:24:38 10° SE
Ariane Rocket 4.4 04:19:59 10° SSW 04:24:43 39° W 04:29:29 10° NNW
NOSS 3-1 (C) 3.2 04:19:42 10° SSW 04:25:05 73° ESE 04:31:21 10° NE
Cosmos 2242 Rocket 3.6 04:20:46 10° S 04:25:08 69° E 04:29:31 10° NNE
STARLINK-1254 4.3 04:21:32 10° SSW 04:25:14 32° SE 04:28:57 10° ENE
STARLINK-1166 3.7 04:21:18 10° WNW 04:25:27 83° SW 04:29:36 10° SE
Cosmos 2082 Rocket 4.1 04:22:07 10° N 04:25:55 18° NE 04:29:41 10° E
STARLINK-1234 2.8 04:23:10 10° SW 04:26:16 86° SSE 04:29:24 10° ENE
NOSS 3-1 (A) 3.5 04:21:19 10° S 04:26:27 46° ESE 04:32:19 10° NE
STARLINK-1228 3.0 04:23:12 10° WSW 04:26:32 89° NNW 04:29:53 10° ENE
STARLINK-1212 2.8 04:24:35 10° SW 04:27:39 64° SE 04:30:44 10° ENE
CZ-2C R/B 3.7 04:23:19 10° NNE 04:27:48 88° ESE 04:32:18 10° SSW
STARLINK-1105 2.8 04:25:03 10° SW 04:28:07 65° SE 04:31:11 10° ENE
Cosmos 1666 4.0 04:24:46 10° NNW 04:28:26 41° W 04:32:02 10° SSW
STARLINK-1209 2.9 04:25:47 10° WSW 04:28:56 85° NW 04:32:05 10° ENE
STARLINK-1247 2.8 04:25:57 10° SW 04:29:02 67° SE 04:32:08 10° ENE
STARLINK-1227 2.8 04:26:25 10° SW 04:29:29 67° SE 04:32:34 10° ENE
STARLINK-1231 4.2 04:26:26 10° SSW 04:30:13 35° SE 04:34:00 10° ENE
STARLINK-1226 2.8 04:27:16 10° SW 04:30:20 68° SE 04:33:27 10° ENE
STARLINK-1165 3.7 04:26:17 10° WNW 04:30:27 77° SW 04:34:34 10° SE
Spot 2 Rocket 4.3 04:26:32 10° SE 04:31:05 36° ENE 04:35:39 10° N
Cosmos 1536 4.1 04:27:21 10° NNW 04:31:12 41° W 04:35:02 10° SSW
STARLINK-1215 2.8 04:28:12 10° SW 04:31:17 70° SE 04:34:24 10° ENE
STARLINK-1217 2.7 04:29:58 10° SW 04:33:03 73° SE 04:36:09 10° ENE
STARLINK-1229 2.7 04:30:52 10° SW 04:33:58 74° SE 04:37:05 10° ENE
MetOp-A 4.5 04:28:47 10° S 04:34:07 69° WSW 04:39:29 10° NNW
Cosmos 1833 Rocket 4.0 04:29:43 10° N 04:34:30 28° NE 04:39:16 10° ESE
STARLINK-1270 2.7 04:31:44 10° SW 04:34:50 76° SE 04:37:57 10° ENE
STARLINK-1232 4.1 04:31:20 10° SSW 04:35:10 38° SE 04:39:02 10° ENE
BREEZE-M DEB (TANK) 3.6 04:26:55 10° WSW 04:35:20 86° SSE 04:38:59 10° ENE
STARLINK-1169 3.7 04:31:16 10° WNW 04:35:24 71° SW 04:39:21 11° SE
STARLINK-1189 2.7 04:33:34 10° SW 04:36:40 79° SE 04:39:47 10° ENE
NOSS 2-3 (C) 4.0 04:33:29 10° S 04:37:28 42° ESE 04:42:03 10° NE
STARLINK-1188 2.8 04:34:27 10° SW 04:37:34 80° SE 04:40:41 10° ENE
STARLINK-1235 3.0 04:35:08 10° WSW 04:38:14 79° NNW 04:41:19 10° NE
SL-8 R/B 3.8 04:33:42 10° WSW 04:38:31 82° NNW 04:43:21 10° ENE
STARLINK-1187 2.8 04:35:35 10° WSW 04:38:39 88° NNW 04:41:45 10° ENE
Cosmos 2056 Rocket 3.9 04:34:35 10° S 04:39:20 41° ESE 04:44:07 10° NE
STARLINK-1191 2.8 04:36:55 10° SW 04:40:01 84° SSE 04:43:08 10° ENE
STARLINK-1208 4.0 04:36:12 10° SSW 04:40:06 42° SE 04:44:01 10° ENE
STARLINK-1178 3.8 04:36:15 10° WNW 04:40:22 66° SW 04:44:07 12° SE
STARLINK-1221 2.8 04:37:48 10° SW 04:40:53 85° SSE 04:44:00 10° ENE
Cosmos 44 Rocket 3.7 04:36:10 10° NW 04:40:59 63° WSW 04:45:54 10° SSE
CZ-2C R/B 2.9 04:35:35 10° NNE 04:41:12 81° WNW 04:46:49 10° SSW
Abrixas rocket 2.1 04:38:36 10° WSW 04:41:33 76° NNW 04:44:30 10° ENE
USA 186 4.4 04:41:01 10° WSW 04:41:40 11° W 04:42:19 10° WNW
STARLINK-1222 2.8 04:38:41 10° SW 04:41:47 87° SSE 04:44:54 10° ENE
Meteor 2-9 Rocket 4.5 04:37:07 10° N 04:42:24 50° ENE 04:47:25 11° SSE
STARLINK-1214 2.8 04:39:36 10° SW 04:42:41 88° SE 04:45:47 10° ENE
Cosmos 1515 4.1 04:41:05 10° SSE 04:44:43 43° E 04:48:22 10° NNE
STARLINK-1271 3.9 04:41:07 10° SSW 04:45:05 46° SE 04:49:03 10° ENE
BREEZE M DEB (TANK) 4.2 04:37:11 10° SW 04:45:11 34° SSE 04:48:15 10° E
STARLINK-1120 3.9 04:41:15 10° WNW 04:45:21 60° SW 04:48:55 13° SE
CREW DRAGON DEMO-1 DEB 2.8 04:43:32 10° WNW 04:46:39 87° NNE 04:49:11 14° ESE
STARLINK-1070 4.4 04:43:32 10° NW 04:47:33 46° NNE 04:51:33 10° E
STARLINK-1087 1.9 04:46:01 10° WNW 04:47:59 56° SW 04:49:07 20° SE
IGS 5A 4.2 04:46:28 12° SE 04:49:52 38° ENE 04:53:44 10° N
STARLINK-1154 3.8 04:46:03 10° SW 04:50:02 50° SE 04:54:04 10° ENE
STARLINK-1131 4.0 04:46:14 10° WNW 04:50:18 55° SW 04:53:41 14° SE
Cosmos 2084 Rocket 4.0 04:47:33 10° SW 04:51:47 64° NW 04:56:08 10° NE
STARLINK-1069 4.3 04:48:29 10° NW 04:52:32 49° NNE 04:56:31 10° E
Tsikada Rocket 4.0 04:47:12 10° S 04:53:24 82° E 04:59:36 10° N
Okean 3 4.4 04:50:21 12° SSE 04:53:40 31° E 04:57:28 10° NNE
STARLINK-1197 3.7 04:50:58 10° SW 04:54:59 54° SE 04:59:03 10° ENE
Lacrosse 5 3.3 04:50:34 10° NW 04:55:04 31° NNE 04:59:33 10° E
STARLINK-1190 4.1 04:51:12 10° WNW 04:55:14 51° SW 04:58:26 15° SSE
Terra 3.5 04:52:55 10° ESE 04:56:15 20° ENE 04:59:40 10° NNE
STARLINK-1085 4.2 04:53:29 10° NW 04:57:34 52° NNE 05:01:20 12° ESE
Meteor 1-19 Rocket 4.2 04:52:45 10° S 04:58:17 71° E 05:04:01 10° NNE
Cosmos 2278 Rocket 2.7 04:54:41 10° S 04:59:55 40° ESE 05:05:10 10° NE
STARLINK-1198 3.6 04:55:52 10° SW 04:59:55 59° SE 05:04:01 10° ENE
STARLINK-1129 4.2 04:56:14 10° WNW 05:00:13 46° SW 05:03:15 16° SSE
Meteor 1-4 Rocket 2.6 04:57:44 11° S 05:01:00 52° E 05:04:23 10° NNE
USA 245 3.2 04:59:09 15° SSE 05:02:01 53° ENE 05:05:01 10° N
Okean 1-7 3.1 04:58:14 10° SSW 05:02:31 79° W 05:06:49 10° N
STARLINK-1086 4.1 04:58:27 10° NW 05:02:33 55° NNE 05:06:06 13° ESE
STARLINK-1199 3.5 05:00:51 10° SW 05:04:56 65° SE 05:09:03 10° ENE
STARLINK-1134 4.3 05:01:17 10° WNW 05:05:12 42° SW 05:08:03 17° SSE
Cosmos 2221 Rocket 4.2 05:01:47 14° SSE 05:05:15 39° E 05:09:30 10° NNE
STARLINK-1095 4.0 05:03:25 10° NW 05:07:32 59° NNE 05:10:53 15° ESE
Meteor 1-18 Rocket 4.3 05:02:51 10° SSW 05:08:25 81° W 05:14:05 10° N
Cosmos 1844 Rocket 4.1 05:04:14 10° SW 05:09:36 42° WNW 05:14:58 10° NNE
ATLAS CENTAUR R/B 4.0 05:08:35 10° WNW 05:09:53 13° NW 05:10:58 10° N
STARLINK-1210 3.5 05:05:47 10° SW 05:09:53 70° SE 05:14:01 10° ENE
STARLINK-1135 4.5 05:06:15 10° WNW 05:10:08 39° SW 05:12:48 18° SSE
Cosmos 1452 Rocket 4.5 05:07:10 16° SSE 05:10:23 28° E 05:14:52 10° NE
Resurs 01 Rocket 2.5 05:07:49 10° S 05:12:07 47° W 05:16:26 10° NNW
STARLINK-1077 3.9 05:08:23 10° NW 05:12:30 63° NNE 05:15:39 17° ESE
Cosmos 407 Rocket 3.8 05:09:02 10° NNW 05:14:21 70° WSW 05:18:56 14° S
STARLINK-1219 3.5 05:10:44 10° SW 05:14:51 76° SE 05:19:00 10° ENE
Cosmos 371 Rocket 4.2 05:12:57 18° SSE 05:15:34 29° E 05:19:45 10° NE
Cosmos 1420 Rocket 4.3 05:11:47 10° S 05:16:39 45° ESE 05:21:35 10° NNE
ERBS 3.1 05:15:14 16° S 05:17:11 28° SE 05:20:05 10° ENE
STARLINK-1075 3.8 05:13:22 10° NW 05:17:30 67° NNE 05:20:26 18° ESE
Sich 1 Rocket 3.6 05:13:19 10° N 05:17:56 85° E 05:21:29 17° S
STARLINK-1211 3.5 05:15:41 10° SW 05:19:49 82° SE 05:23:58 10° ENE
STARLINK-1093 3.7 05:18:21 10° NW 05:22:30 72° NNE 05:25:14 20° ESE
Cosmos 1544 3.4 05:19:23 10° NNW 05:23:00 61° W 05:25:44 16° S
Intercosmos 24 4.0 05:20:36 10° N 05:24:17 50° ENE 05:26:00 26° SE
STARLINK-1245 3.5 05:20:40 10° SW 05:24:48 88° SSE 05:28:58 10° ENE
SAR-Lupe-2 3.5 05:21:16 10° NNE 05:24:53 87° WNW 05:28:12 12° SSW
Cosmos 1782 Rocket 4.3 05:20:31 10° NNW 05:24:53 53° W 05:29:01 11° S
SL-4 R/B 3.2 05:22:46 10° N 05:25:19 21° NE 05:26:43 16° E
STARLINK-1074 3.7 05:23:19 10° NW 05:27:29 77° NNE 05:30:00 23° ESE
SPOT 1/Viking Rocket 3.5 05:25:39 19° SSE 05:29:27 84° ENE 05:34:38 10° NNW
STARLINK-1233 3.6 05:25:38 10° WSW 05:29:47 86° NNW 05:33:56 10° ENE
SPOT 5 3.3 05:28:35 22° SE 05:31:47 57° ENE 05:36:58 10° N
COSMOS 2406 3.3 05:26:35 10° NNW 05:32:23 78° WSW 05:36:21 21° SSE
Meteor 1-13 Rocket 4.3 05:28:56 17° SSE 05:33:05 57° E 05:38:39 10° NNE
Okean 2 Rocket 3.0 05:30:04 10° N 05:34:32 78° E 05:37:06 25° SSE
Meteor 2-4 Rocket 3.6 05:29:14 10° S 05:34:38 89° ESE 05:40:01 10° N
STARLINK-1204 3.7 05:30:38 10° WSW 05:34:46 80° NNW 05:38:56 10° NE
Cosmos 2142 Rocket 4.4 05:29:12 10° N 05:35:22 85° E 05:39:56 19° S
NOSS 2-3 (E) 4.3 05:32:56 10° SW 05:37:09 59° NW 05:42:13 10° NNE
STARLINK-1241 4.4 05:37:14 29° SE 05:37:17 29° SE 05:40:53 10° ENE
STARLINK-1088 3.6 05:33:16 10° WNW 05:37:26 89° NNE 05:39:34 28° ESE
STARLINK-1238 3.8 05:35:36 10° WSW 05:39:44 75° NNW 05:43:53 10° NE
STARLINK-1239 4.3 05:42:00 31° SE 05:42:14 31° SE 05:45:55 10° ENE
STARLINK-1115 3.5 05:38:14 10° WNW 05:42:24 85° SSW 05:44:20 31° SE
ISS -2.3 05:40:22 10° NW 05:43:31 34° NNE 05:45:55 15° ENE
Cosmos 1975 4.2 05:40:01 10° NNW 05:43:43 34° W 05:47:01 12° SSW
STARLINK-1201 3.9 05:40:36 10° WSW 05:44:44 70° NNW 05:48:53 10° NE
STARLINK-1240 4.2 05:46:46 33° SSE 05:47:11 34° SE 05:50:57 10° ENE
Cosmos 1140 Rocket 4.2 05:42:15 10° NNW 05:47:14 47° WSW 05:50:48 18° S
STARLINK-1076 3.5 05:43:14 10° WNW 05:47:24 79° SSW 05:49:07 34° SE
Cosmos 2151 Rocket 3.6 05:43:05 10° N 05:47:38 75° E 05:49:50 30° SSE
GENESIS II 4.2 05:43:40 10° NW 05:47:43 85° WSW 05:49:16 36° SSE
Landsat 7 4.4 05:45:36 18° S 05:48:59 53° W 05:53:40 10° NNW
STARLINK-1206 4.0 05:45:36 10° WSW 05:49:43 65° NNW 05:53:51 10° NE
Okean 1 Rocket 3.9 05:47:04 10° N 05:51:15 37° ENE 05:52:48 28° ESE
STARLINK-1216 4.1 05:51:32 35° SSE 05:52:08 37° SE 05:55:58 10° ENE
STARLINK-1092 3.6 05:48:12 10° WNW 05:52:20 74° SW 05:53:53 37° SE
Crew Dragon 2.1 05:52:35 10° NW 05:54:25 23° NNE 05:54:49 22° NE
STARLINK-1205 4.1 05:50:37 10° WSW 05:54:42 61° NNW 05:58:49 10° NE
Cosmos 2297 4.5 05:54:46 28° SE 05:56:26 33° ESE 06:01:28 10° NE
STARLINK-1237 3.9 05:56:18 36° SSE 05:57:05 41° SE 06:01:00 10° ENE
STARLINK-1080 3.6 05:53:14 10° WNW 05:57:21 67° SW 05:58:42 39° SSE
Cosmos 1850 Rocket 4.3 05:52:11 10° NNW 05:57:29 58° ENE 06:00:01 30° SE
Nadezhda 4 Rocket 4.2 05:56:18 27° SSE 05:59:32 53° E 06:05:28 10° NNE
STARLINK-1218 4.3 05:55:36 10° WSW 05:59:41 57° NNW 06:03:47 10° NE
USA 215 3.9 05:55:06 10° E 06:01:23 51° NNE 06:07:39 10° NW
STARLINK-1202 3.8 06:01:04 37° S 06:02:03 44° SE 06:06:01 10° ENE
STARLINK-1090 3.7 05:58:12 10° WNW 06:02:18 62° SW 06:03:29 42° SSE
ERS-1 Rocket 3.2 06:00:26 26° S 06:03:16 66° WSW 06:08:18 10° NNW
Cosmos 304 Rocket 4.3 06:02:22 34° SE 06:03:28 38° ESE 06:07:55 10° NE
STARLINK-1125 4.5 06:00:29 10° NW 06:04:30 46° NNE 06:07:00 20° E
STARLINK-1254 4.4 06:00:37 10° WSW 06:04:41 54° NNW 06:08:46 10° NE
SeaSat 1 3.0 06:01:23 10° NE 06:06:00 39° ESE 06:07:08 34° SE
STARLINK-1089 3.8 06:03:12 10° WNW 06:07:16 57° SW 06:08:15 44° SSE
Cosmos 2279 Rocket 4.2 06:01:15 10° NNW 06:07:26 67° W 06:11:34 22° S
Cosmos 332 Rocket 3.8 06:05:52 29° S 06:08:17 68° ESE 06:13:10 10° NNE
STARLINK-1109 4.4 06:05:27 10° NW 06:09:29 48° NNE 06:11:47 23° E
Cosmos 1437 Rocket 2.5 06:09:10 42° S 06:10:23 90° E 06:14:11 10° N
Cosmos 2082 Rocket 2.2 06:05:07 10° NNW 06:10:54 86° ENE 06:13:32 34° SSE
STARLINK-1246 3.6 06:10:35 35° SSW 06:11:58 53° SE 06:16:00 10° ENE
STARLINK-1107 3.9 06:08:11 10° WNW 06:12:14 52° SW 06:13:02 44° S
CARTOSAT-1 4.1 06:10:54 28° SSW 06:12:51 51° W 06:17:06 10° NNW
STARLINK-1091 4.3 06:10:25 10° NW 06:14:28 51° NNE 06:16:34 26° E
STARLINK-1224 3.6 06:15:21 33° SSW 06:16:56 58° SE 06:21:00 10° ENE
STARLINK-1066 4.0 06:13:13 10° WNW 06:17:12 48° SW 06:17:50 44° S
Abrixas rocket 3.3 06:14:29 10° WNW 06:17:17 39° N 06:18:42 23° NE
MTI 3.5 06:15:01 10° NNE 06:18:11 89° ESE 06:18:20 80° S
Cosmos 1833 Rocket 3.1 06:13:16 10° NW 06:18:43 52° WSW 06:21:20 29° S
STARLINK-1072 4.2 06:15:24 10° NW 06:19:29 54° NNE 06:21:21 29° E
SL-8 R/B 4.3 06:16:38 10° WNW 06:21:22 56° N 06:26:08 10° E
STARLINK-1225 3.5 06:20:07 31° SSW 06:21:54 63° SE 06:26:00 10° ENE
STARLINK-1081 4.1 06:18:13 10° WNW 06:22:10 44° SW 06:22:37 42° SSW
STARLINK-1096 4.1 06:20:24 10° NW 06:24:30 58° NNE 06:26:09 32° E
Meteor 1-15 Rocket 4.3 06:19:56 10° NNW 06:25:54 86° W 06:28:36 35° S
Cosmos 2369 Rocket 3.7 06:26:00 18° E 06:26:03 18° E 06:29:50 10° ENE
STARLINK-1230 3.5 06:24:53 29° SW 06:26:52 68° SE 06:30:59 10° ENE
STARLINK-1070 4.2 06:23:13 10° WNW 06:27:06 40° SW 06:27:23 40° SSW
Cosmos 1331 Rocket 4.3 06:27:44 41° SE 06:28:51 48° ESE 06:33:49 10° NNE
STARLINK-1079 4.0 06:25:21 10° NW 06:29:29 61° NNE 06:30:55 37° E
Cosmos 1066 Rocket 4.0 06:27:46 32° S 06:30:21 90° WNW 06:35:45 10° N
STARLINK-1243 3.4 06:29:38 26° SW 06:31:50 74° SE 06:35:59 10° ENE
STARLINK-1069 4.4 06:28:13 10° WNW 06:32:03 37° SW 06:32:09 37° SW
Terra 2.3 06:31:48 34° SSW 06:33:36 53° W 06:38:17 10° NNW
STARLINK-1116 3.8 06:30:20 10° NW 06:34:28 66° NNE 06:35:42 42° E
NOSS 8 (E) 4.5 06:34:58 61° NE 06:34:58 61° NE 06:37:32 10° NE
Cosmos 1766 3.5 06:31:01 10° N 06:34:54 54° ENE 06:35:19 51° ESE
Cosmos 1943 Rocket 3.0 06:34:59 29° ESE 06:35:24 30° ESE 06:40:10 10° NE
STARLINK-1236 3.4 06:34:24 24° SW 06:36:49 80° SE 06:40:58 10° ENE
Cosmos 1092 Rocket 4.0 06:35:26 37° SSE 06:37:50 66° E 06:43:56 10° NNE
Lacrosse 5 1.8 06:33:25 10° NW 06:38:29 79° SW 06:39:54 48° SE
deb Kosmos-1763 4.1 06:35:28 10° NNW 06:39:03 64° ENE 06:39:09 64° ENE
Spot 4 4.4 06:38:59 37° ESE 06:40:21 48° ENE 06:45:02 10° N
Cosmos 2278 Rocket 3.7 06:38:52 10° WSW 06:44:02 35° NW 06:49:14 10° NNE
STARLINK-1094 3.6 06:40:18 10° NW 06:44:27 75° NNE 06:45:16 55° E
Cosmos 1461 2.8 06:44:38 65° SE 06:44:49 66° ESE 06:49:07 10° NE
NOSS 2-2 (C) 4.4 06:47:11 30° ENE 06:47:11 30° ENE 06:49:33 10° NE
ATLAS 2AS CENTAUR R/B 4.3 06:45:27 20° ESE 06:46:17 20° ESE 06:51:41 10° ENE
STARLINK-1269 3.5 06:43:54 20° WSW 06:46:45 88° NNW 06:50:55 10° ENE
STARLINK-1117 3.6 06:45:16 10° NW 06:49:26 81° NNE 06:50:03 63° ESE
Thor Agena Rocket 3.5 06:44:16 10° NNE 06:49:34 70° ESE 06:51:03 47° S
STARLINK-1200 3.6 06:48:41 18° WSW 06:51:45 82° NNW 06:55:54 10° NE
Cosmos 1733 3.2 06:48:25 10° N 06:52:14 65° E 06:52:17 65° E
ERBS 4.0 06:50:23 10° W 06:53:26 33° NNW 06:56:29 10° NE
STARLINK-1078 3.5 06:50:14 10° WNW 06:54:24 86° NNE 06:54:49 71° ESE
STARLINK-1192 3.7 06:53:27 16° WSW 06:56:44 77° NNW 07:00:53 10° NE
SL-4 R/B 3.4 06:55:50 10° WNW 06:57:33 21° W 06:57:33 21° W
STARLINK-1108 3.4 06:55:13 10° WNW 06:59:23 88° SW 06:59:36 80° SE
BREEZE-M DEB (TANK) 4.3 06:45:22 10° WNW 06:59:26 73° NNE 07:02:05 24° E
Cosmos 2195 Rocket 4.4 06:57:32 40° S 07:00:00 84° E 07:06:20 10° N
Cosmos 1242 Rocket 3.9 07:01:36 29° ENE 07:01:36 29° ENE 07:04:09 10° NNE
USA 238 DEB 4.3 06:54:10 10° NNW 07:01:15 56° NE 07:05:58 23° ESE
USA 238 4.3 06:54:16 10° NNW 07:01:20 55° NE 07:06:05 23° ESE
STARLINK-1244 3.8 06:58:12 14° WSW 07:01:42 72° NNW 07:05:51 10° NE
Aureole 2 Rocket 3.1 07:03:27 47° NW 07:03:27 47° NW 07:06:12 10° N
STARLINK-1071 3.4 07:00:12 10° WNW 07:04:21 82° SW 07:04:23 81° SSW
STARLINK-1138 3.9 07:02:58 12° WSW 07:06:41 67° NNW 07:10:49 10° NE
Cosmos 1975 Rocket 2.9 07:06:32 68° S 07:07:05 89° ESE 07:11:34 10° N
STARLINK-1110 3.5 07:04:23 10° WNW 07:08:23 75° WSW 07:08:23 75° WSW
STARLINK-1203 4.0 07:06:01 10° WSW 07:10:11 63° NNW 07:14:22 10° NE
Cosmos 1428 Rocket 4.4 07:08:40 44° S 07:10:50 80° E 07:17:10 10° N
STARLINK-1143 4.0 07:07:46 11° WSW 07:11:41 63° NNW 07:15:48 10° NE
STARLINK-1124 3.7 07:10:10 10° WNW 07:13:57 65° WSW 07:13:57 65° WSW
EXPRESS MD2 4.2 07:11:54 10° WSW 07:15:57 81° NNW 07:24:44 10° ENE
STARLINK-1241 4.1 07:12:34 10° WSW 07:16:39 58° NNW 07:20:46 10° NE
Cosmos 1470 3.3 07:13:42 10° N 07:17:20 48° ENE 07:17:20 48° ENE
STARLINK-1122 3.9 07:15:10 10° WNW 07:18:44 57° W 07:18:44 57° W
ISS -2.0 07:17:07 10° WNW 07:18:50 27° WNW 07:18:50 27° WNW
STARLINK-1239 4.3 07:17:35 10° WSW 07:21:39 55° NNW 07:25:44 10° NE
EO 1 Del DPAF 3.8 07:19:43 10° N 07:23:23 49° WNW 07:23:40 48° W
STARLINK-1126 4.1 07:20:05 10° WNW 07:23:27 50° W 07:23:27 50° W
Cosmos 1805 4.4 07:21:23 10° NNW 07:24:54 32° W 07:25:03 32° W
STARLINK-1119 4.5 07:22:26 10° NW 07:26:28 47° NNE 07:27:58 32° ENE
STARLINK-1240 4.4 07:22:36 10° WSW 07:26:40 52° NNW 07:30:43 10° NE
Cosmos 1553 Rocket 4.0 07:20:30 10° N 07:26:52 74° E 07:28:45 47° SSE
STARLINK-1082 4.3 07:25:09 10° WNW 07:28:17 43° W 07:28:17 43° W
SL-4 R/B 4.1 07:31:34 13° NNW 07:31:34 13° NNW 07:31:55 10° NNW
Okean 2 4.1 07:30:21 41° W 07:30:52 44° WNW 07:34:52 10° N
Cosmos 2026 Rocket 4.1 07:28:33 39° SSW 07:30:56 69° W 07:37:15 10° N
STARLINK-1114 4.4 07:27:25 10° NW 07:31:28 50° NNE 07:32:45 36° ENE
STARLINK-1216 4.5 07:27:37 10° W 07:31:39 49° NNW 07:35:41 10° NE
SWAS 4.5 07:31:26 10° NNW 07:35:45 70° ENE 07:35:57 69° E
STARLINK-1130 (DARKSAT) 4.3 07:32:23 10° NW 07:36:27 53° NNE 07:37:31 41° ENE
Cosmos 1842 3.9 07:37:04 47° W 07:37:10 47° WNW 07:40:59 10° N
Helios 1A 3.5 07:37:01 47° E 07:37:17 48° ENE 07:41:19 10° N
Meteor 2-10 4.4 07:33:01 10° N 07:37:57 49° ENE 07:38:55 43° ESE
STARLINK-1084 4.1 07:37:21 10° NW 07:41:26 56° NNE 07:42:18 46° ENE
Cosmos 1455 Rocket 3.4 07:37:26 10° NNW 07:41:40 51° W 07:41:49 51° WSW
SeaSat 1 3.9 07:39:02 10° N 07:43:26 34° NW 07:46:53 15° WSW
USA 215 3.2 07:42:23 45° SSE 07:44:17 63° SW 07:50:48 10° NW
Aureole 3 Rocket 4.0 07:39:57 10° NNW 07:45:20 75° W 07:47:33 45° S
STARLINK-1098 4.0 07:42:21 10° NW 07:46:28 60° NNE 07:47:06 52° ENE
Cosmos 1025 Rocket 2.9 07:49:56 85° ENE 07:49:56 85° ENE 07:54:11 10° N
STARLINK-1123 3.9 07:47:19 10° NW 07:51:27 64° NNE 07:51:52 59° ENE
Cosmos 2082 Rocket 4.2 07:51:09 10° WNW 07:54:09 15° W 07:55:23 14° WSW
NOSS 2-2 (D) 4.3 07:53:55 36° WNW 07:54:35 40° NW 07:58:25 10° NNE
Helios 1B rocket 4.0 07:51:25 10° NE 07:54:28 25° E 07:54:28 25° E
STARLINK-1097 3.8 07:52:17 10° NW 07:56:25 69° NNE 07:56:38 67° NE
Cosmos 968 Rocket 3.4 07:51:54 10° NNW 07:57:07 79° ENE 07:57:58 61° SE
Landsat 4 4.3 07:55:01 10° NNE 07:58:01 49° NE 07:58:01 49° NE
NOSS 3-2 (C) 4.1 07:51:27 10° NW 07:59:00 77° NE 08:04:01 27° SE
Cosmos 1354 Rocket 4.5 07:54:46 10° NNW 07:59:59 55° ENE 08:01:26 42° ESE
Cosmos 2266 Rocket 4.0 07:58:58 50° SSE 08:00:29 68° E 08:06:31 10° NNE
STARLINK-1099 3.7 07:57:14 10° NW 08:01:23 73° NNE 08:01:24 73° NNE
SL-27 R/B 3.5 07:58:15 10° NNW 08:00:54 42° NW 08:00:54 42° NW
ALOS 2 3.0 08:03:42 51° W 08:03:42 51° W 08:07:58 10° NNW
Cosmos 1726 2.6 08:00:12 10° N 08:03:22 56° NE 08:03:22 56° NE
SL-8 R/B 3.6 07:59:22 10° WNW 08:04:12 87° NNE 08:05:16 55° ESE
STARLINK-1104 3.7 08:02:13 10° NW 08:06:11 76° N 08:06:11 76° N
Cosmos 1536 Rocket 3.5 08:06:38 72° W 08:06:43 73° W 08:11:04 10° N
BREEZE-M DEB (TANK) 3.5 07:58:20 10° W 08:07:05 54° NNW 08:10:01 10° ENE
Cosmos 1486 Rocket 4.0 08:02:29 10° NNW 08:07:46 67° WSW 08:08:23 61° SSW
NOSS 3-4 (A) 3.6 08:07:07 48° SE 08:07:51 50° ESE 08:13:50 10° NE
NOSS 3-4 (C) 3.6 08:07:14 47° SE 08:07:57 50° ESE 08:13:57 10° NE
Cosmos 2369 Rocket 2.3 08:07:44 45° SW 08:09:27 70° WNW 08:15:08 10° NNE
STARLINK-1144 3.7 08:07:12 10° WNW 08:10:58 72° NW 08:10:58 72° NW
ATLAS 3B R/B 3.6 08:07:29 10° NNW 08:13:58 45° NE 08:20:38 10° ESE
COSMOS 2487 3.9 08:11:43 10° N 08:14:42 31° ENE 08:14:42 31° ENE
STARLINK-1103 3.8 08:12:11 10° WNW 08:15:45 65° WNW 08:15:45 65° WNW
Meteor 2-19 Rocket 4.4 08:14:54 52° S 08:16:31 88° E 08:22:42 10° N
Cosmos 292 Rocket 4.1 08:16:01 51° WSW 08:16:51 60° WNW 08:21:40 10° NNE
Cosmos 1271 Rocket 3.6 08:17:18 40° WNW 08:17:18 40° WNW 08:20:50 10° N
CENTAUR R/B 3.2 08:09:40 10° NW 08:17:47 84° NE 08:23:12 27° SE
Cosmos 1953 2.5 08:14:13 10° NNW 08:17:51 66° NW 08:17:51 66° NW
Cosmos 883 Rocket 4.4 08:12:15 10° N 08:18:26 82° E 08:20:08 50° SSE
Cosmos 2098 Rocket 4.4 08:16:44 43° SSE 08:18:51 63° E 08:26:07 10° NNE
Cosmos 1943 Rocket 3.0 08:16:28 28° WSW 08:18:56 44° WNW 08:24:16 10° NNE
Cosmos 1340 Rocket 2.9 08:15:16 10° N 08:19:04 77° NNE 08:19:04 77° NNE
Cosmos 2228 3.7 08:15:14 10° N 08:19:20 44° ENE 08:19:39 43° E
Lacrosse 5 4.1 08:18:04 10° W 08:19:05 12° W 08:19:05 12° W
STARLINK-1101 4.0 08:17:09 10° WNW 08:20:31 57° WNW 08:20:31 57° WNW
Resurs 1-4 Rocket 4.4 08:20:37 10° ENE 08:22:35 12° E 08:24:31 10° ESE
Cosmos 1707 3.7 08:24:51 38° WNW 08:24:51 38° WNW 08:28:25 10° N
STARLINK-1102 4.1 08:22:10 10° WNW 08:25:20 50° WNW 08:25:20 50° WNW
Meteor 2-5 Rocket 4.3 08:25:08 38° SE 08:26:20 43° E 08:31:36 10° NNE
Cosmos 1626 4.1 08:27:14 21° E 08:27:14 21° E 08:29:51 10° NE
STARLINK-1111 4.3 08:27:09 10° WNW 08:30:06 44° WNW 08:30:06 44° WNW
Cosmos 2315 Rocket 3.9 08:28:19 10° N 08:34:34 88° E 08:36:24 49° S
GEOS 3 Rocket 4.1 08:32:59 24° ESE 08:36:00 59° NE 08:41:12 10° NNW
ATLAS 2AS CENTAUR R/B 3.0 08:32:51 39° SSW 08:36:16 83° SE 08:44:16 10° NE
Meteor 2-15 4.5 08:36:46 10° NNW 08:42:52 67° W 08:44:27 49° SSW
Cosmos 1606 Rocket 3.4 08:39:52 10° N 08:44:13 86° E 08:44:22 82° SE
NOSS 3-2 (A) 4.4 08:37:27 10° NW 08:44:42 46° WSW 08:46:57 38° SSW
SL-4 R/B 2.5 08:46:57 57° SE 08:46:57 57° SE 08:51:23 10° ENE
Cosmos 1674 2.9 08:47:25 66° NNW 08:47:25 66° NNW 08:50:47 10° N
Cosmos 1992 Rocket 4.5 08:45:50 41° WSW 08:47:11 52° WNW 08:52:17 10° NNE
COSMOS 2455 2.8 08:47:15 52° S 08:48:42 71° ESE 08:54:42 10° NE
Nadezhda 2 Rocket 4.4 08:48:17 47° SSE 08:50:06 75° E 08:56:13 10° NNE
USA 238 DEB 4.4 08:45:27 10° NW 08:52:04 39° WSW 08:53:22 37° SW
USA 238 4.4 08:45:31 10° NW 08:52:10 40° WSW 08:53:30 37° SW
ATLAS CENTAUR R/B 1.4 08:57:43 68° ESE 08:57:43 68° ESE 09:01:53 10° NE
BREEZE-M DEB (TANK) 3.7 09:00:00 19° ENE 09:00:00 19° ENE 09:00:43 10° ENE
Cosmos 1833 4.4 08:53:23 10° NW 08:58:48 49° WSW 08:59:28 47° SW
CZ-4 R/B 4.0 08:55:44 10° N 09:00:31 62° WNW 09:01:21 53° WSW
PSLV R/B 3.7 08:57:39 10° N 09:02:14 66° WNW 09:02:48 59° WSW
Cosmos 1656 Rocket 4.2 09:00:36 36° WSW 09:02:34 53° WNW 09:08:03 10° NNE
Cosmos 1908 4.1 09:07:37 10° NNW 09:10:43 38° WNW 09:10:43 38° WNW
Spot 1 4.2 09:12:34 53° SSE 09:13:39 81° ENE 09:18:31 10° NNW
STARLINK-1234 4.1 09:12:21 10° NW 09:15:21 42° NNE 09:15:55 38° ENE
STARLINK-1212 4.5 09:13:46 10° NW 09:16:40 35° NNE 09:19:34 10° E
STARLINK-1105 4.5 09:14:14 10° NW 09:17:08 35° NNE 09:20:01 10° E
Cosmos 2297 Rocket 3.8 09:12:27 10° N 09:17:30 32° NE 09:22:31 10° ESE
STARLINK-1247 4.5 09:15:08 10° NW 09:18:04 36° NNE 09:20:59 10° E
STARLINK-1228 3.9 09:14:56 10° NW 09:18:12 49° NNE 09:20:04 22° E
STARLINK-1227 4.4 09:15:36 10° NW 09:18:30 36° NNE 09:21:24 10° E
STARLINK-1209 3.9 09:15:37 10° NW 09:18:41 47° NNE 09:18:58 46° NE
RESURS DK-1 2.5 09:18:40 58° SE 09:18:53 59° ESE 09:22:58 10° NE
STARLINK-1226 4.4 09:16:26 10° NW 09:19:22 36° NNE 09:22:17 10° E
STARLINK-1215 4.4 09:17:24 10° NW 09:20:20 37° NNE 09:23:16 10° E
STARLINK-52 4.5 09:21:46 29° E 09:21:46 29° E 09:23:37 10° ENE
Cosmos 1892 Rocket 3.6 09:20:40 56° WSW 09:21:11 62° W 09:25:33 10° N
Cosmos 1777 Rocket 3.9 09:16:08 10° NNW 09:21:22 82° WSW 09:22:56 47° S
STARLINK-1217 4.3 09:19:09 10° NW 09:22:06 38° NNE 09:25:03 10° E
STARLINK-1229 4.3 09:20:04 10° NW 09:23:02 38° NNE 09:25:59 10° E
STARLINK-1270 4.3 09:20:56 10° NW 09:23:54 39° NNE 09:26:52 10° E
BREEZE M DEB (TANK) 3.3 09:24:29 38° NNE 09:24:29 38° NNE 09:27:23 10° E
Cosmos 1356 Rocket 4.1 09:21:06 10° N 09:25:09 50° ENE 09:26:27 36° SE
Nadezhda 1 Rocket 4.2 09:19:15 10° N 09:25:25 66° E 09:28:51 28° SSE
STARLINK-1189 4.2 09:22:46 10° NW 09:25:45 40° NNE 09:28:42 10° E
STARLINK-1188 4.2 09:23:39 10° NW 09:26:38 40° NNE 09:29:37 10° E
STARLINK-1235 3.7 09:24:18 10° NW 09:27:19 49° NNE 09:27:45 44° ENE
STARLINK-1187 4.0 09:24:44 10° NW 09:27:44 44° NNE 09:30:29 12° E
STARLINK-1191 4.1 09:26:07 10° NW 09:29:06 41° NNE 09:32:04 10° E
STARLINK-1221 4.1 09:26:59 10° NW 09:29:57 42° NNE 09:32:56 10° E
Helios 1B rocket 3.7 09:26:30 10° N 09:30:06 30° WNW 09:30:47 28° W
CZ-4C R/B 3.9 09:29:19 38° SE 09:30:41 59° ENE 09:34:59 10° N
STARLINK-1222 4.1 09:27:53 10° NW 09:30:52 43° NNE 09:33:51 10° E
STARLINK-1214 4.0 09:28:47 10° NW 09:31:46 43° NNE 09:34:44 10° E
Cosmos 1726 Rocket 4.3 09:28:07 10° NNW 09:32:05 36° W 09:32:10 36° W
SL-19 R/B 4.2 09:28:11 10° NNE 09:33:36 76° WNW 09:35:35 41° SSW
Meteor 1-29 4.2 09:32:30 10° N 09:35:25 31° WNW 09:35:25 31° WNW
Cosmos 1867 3.9 09:34:05 10° NW 09:39:12 42° WSW 09:39:46 40° SW
DELTA 2 DEB (DPAF) 4.1 09:42:29 52° SSW 09:43:26 70° WSW 09:47:54 10° NNW
SL-16 R/B 2.6 09:41:27 23° SSE 09:45:27 80° ENE 09:51:39 10° NNW
Timation 2 Rocket 3.9 09:39:30 10° NNW 09:45:49 71° WSW 09:49:03 29° S
Meteor 2-1 Rocket 4.4 09:40:51 10° N 09:46:20 66° ENE 09:49:50 23° SSE
STARLINK-60 4.0 09:50:57 35° WNW 09:51:36 41° NNW 09:54:41 10° NE
SL-14 R/B 4.0 09:51:16 36° W 09:51:38 37° WNW 09:55:16 10° N
Cosmos 2227 Rocket 3.1 09:47:50 10° NNW 09:53:22 50° ENE 09:58:51 10° SE
CZ-2D R/B 2.1 09:49:18 10° NNE 09:54:34 74° ESE 09:56:52 34° S
Cosmos 1300 3.3 09:51:05 10° NNW 09:54:40 39° W 09:54:40 39° W
Meteor 1-24 Rocket 4.2 09:52:57 33° WSW 09:54:46 45° WNW 09:59:56 10° N
STARLINK-1320 4.3 09:55:31 28° ESE 09:55:31 28° ESE 09:57:41 10° ENE
STARLINK-1322 4.3 09:55:50 29° ESE 09:55:50 29° ESE 09:58:01 10° ENE
ADEOS II 3.5 09:50:37 10° NE 09:55:13 30° E 09:58:48 15° SSE
Cosmos 1697 Rocket 4.3 09:51:53 15° SSE 09:55:15 26° ESE 09:59:50 10° NE
STARLINK-1324 4.2 09:56:11 29° ESE 09:56:11 29° ESE 09:58:23 10° ENE
STARLINK-1294 4.2 09:56:26 29° ESE 09:56:26 29° ESE 09:58:40 10° ENE
Cosmos 2084 3.5 09:54:57 48° SSW 09:56:07 77° SE 10:00:36 10° NE
STARLINK-1261 4.2 09:56:49 29° ESE 09:56:49 29° ESE 09:59:03 10° ENE
STARLINK-1325 4.2 09:57:09 30° ESE 09:57:09 30° ESE 09:59:25 10° ENE
STARLINK-1333 4.2 09:57:27 30° ESE 09:57:27 30° ESE 09:59:43 10° ENE
Cosmos 2058 Rocket 4.0 09:52:57 10° NNW 09:56:53 32° W 09:57:20 31° WSW
STARLINK-1334 4.2 09:57:47 30° ESE 09:57:47 30° ESE 10:00:04 10° ENE
STARLINK-1326 4.1 09:58:07 31° ESE 09:58:07 31° ESE 10:00:25 10° ENE
STARLINK-1323 4.1 09:58:26 31° ESE 09:58:26 31° ESE 10:00:45 10° ENE
STARLINK-1349 4.1 09:58:45 31° ESE 09:58:45 31° ESE 10:01:05 10° ENE
STARLINK-1336 4.1 09:59:07 32° ESE 09:59:07 32° ESE 10:01:28 10° ENE
STARLINK-1331 4.1 09:59:25 32° ESE 09:59:25 32° ESE 10:01:46 10° ENE
Cosmos 1745 Rocket 3.9 09:56:04 34° SSW 09:58:55 74° W 10:05:05 10° N
STARLINK-1344 4.0 09:59:44 32° ESE 09:59:44 32° ESE 10:02:07 10° ENE
BREEZE-M DEB (TANK) 3.9 09:55:45 10° WNW 09:59:33 51° SSW 10:08:43 10° SE
STARLINK-1343 4.0 10:00:04 32° ESE 10:00:04 32° ESE 10:02:27 10° ENE
SJ 16-02 2.3 09:55:22 10° N 09:59:40 47° ENE 10:03:51 10° SE
STARLINK-1346 4.0 10:00:22 33° ESE 10:00:22 33° ESE 10:02:50 10° ENE
STARLINK-1328 4.0 10:00:44 33° ESE 10:00:44 33° ESE 10:03:10 10° ENE
STARLINK-1354 4.0 10:01:02 33° ESE 10:01:02 33° ESE 10:03:28 10° ENE
STARLINK-1347 4.0 10:01:23 34° ESE 10:01:23 34° ESE 10:03:50 10° ENE
STARLINK-1357 3.9 10:01:41 34° ESE 10:01:41 34° ESE 10:04:10 10° ENE
STARLINK-1335 3.9 10:02:01 34° ESE 10:02:01 34° ESE 10:04:30 10° ENE
STARLINK-1327 3.9 10:02:20 35° ESE 10:02:20 35° ESE 10:04:50 10° ENE
Cosmos 1626 3.5 10:01:47 26° W 10:02:07 26° WNW 10:05:18 10° NNW
STARLINK-1340 3.9 10:02:41 35° ESE 10:02:41 35° ESE 10:05:12 10° ENE
USA 81 4.1 09:59:41 30° S 10:02:20 74° E 10:07:38 10° N
STARLINK-1356 3.9 10:03:00 35° ESE 10:03:00 35° ESE 10:05:32 10° ENE
STARLINK-1345 3.8 10:03:20 36° ESE 10:03:20 36° ESE 10:05:53 10° ENE
Resurs 1-4 Rocket 2.0 09:57:49 10° NNE 10:03:08 89° ESE 10:05:36 33° SSW
STARLINK-1355 3.8 10:03:38 36° ESE 10:03:38 36° ESE 10:06:12 10° ENE
STARLINK-1321 3.8 10:03:57 36° ESE 10:03:57 36° ESE 10:06:32 10° ENE
STARLINK-1358 3.8 10:04:19 37° ESE 10:04:19 37° ESE 10:06:54 10° ENE
EP 2 4.4 10:04:02 84° W 10:04:05 86° NW 10:07:11 10° NE
ARIANE 5 R/B 4.5 10:00:23 10° NE 10:04:16 22° E 10:08:05 10° SE
STARLINK-1332 3.8 10:04:36 37° ESE 10:04:36 37° ESE 10:07:13 10° ENE
STARLINK-1348 3.7 10:04:58 37° ESE 10:04:58 37° ESE 10:07:35 10° ENE
ATLAS 3B R/B 3.0 09:58:15 10° NW 10:04:43 46° WSW 10:08:24 25° S
STARLINK-1338 3.9 10:04:45 38° SE 10:04:46 38° SE 10:08:01 10° ENE
STARLINK-1330 3.7 10:05:15 38° ESE 10:05:15 38° ESE 10:07:54 10° ENE
Cosmos 1437 3.7 10:05:28 31° WNW 10:05:28 31° WNW 10:07:59 10° N
STARLINK-1363 3.7 10:05:35 38° ESE 10:05:35 38° ESE 10:08:14 10° ENE
Cosmos 921 Rocket 3.5 10:04:17 36° WSW 10:05:26 46° WNW 10:09:36 10° N
STARLINK-1337 3.7 10:05:55 39° SE 10:05:55 39° SE 10:08:35 10° ENE
STARLINK-1342 3.7 10:06:14 39° SE 10:06:14 39° SE 10:08:55 10° ENE
STARLINK-1364 3.6 10:06:34 39° SE 10:06:34 39° SE 10:09:16 10° ENE
STARLINK-1376 3.6 10:06:55 40° SE 10:06:55 40° SE 10:09:38 10° ENE
STARLINK-1360 3.6 10:07:10 40° SE 10:07:10 40° SE 10:09:55 10° ENE
STARLINK-1361 3.6 10:07:36 40° SE 10:07:36 40° SE 10:10:21 10° ENE
STARLINK-1367 3.6 10:07:49 41° SE 10:07:49 41° SE 10:10:38 10° ENE
CENTAUR R/B 4.1 10:01:18 10° WNW 10:07:59 27° WSW 10:10:19 24° SW
STARLINK-1366 3.5 10:08:12 41° SE 10:08:12 41° SE 10:10:59 10° ENE
STARLINK-1371 3.7 10:08:44 41° SSE 10:08:55 41° SE 10:12:14 10° ENE
BREEZE-M R/B 2.6 10:08:47 34° WSW 10:10:34 86° SSE 10:13:32 10° ENE
Cosmos 1898 Rocket 4.2 10:05:33 10° NNW 10:10:50 56° ENE 10:16:03 10° SE
STARLINK-1341 3.6 10:10:44 42° SSE 10:11:00 43° SE 10:14:20 10° ENE
NPP 3.6 10:07:13 10° NNE 10:12:39 89° WNW 10:15:27 30° SSW
STARLINK-1374 3.6 10:12:47 43° SSE 10:13:07 45° SE 10:16:29 10° ENE
Cosmos 1626 Rocket 3.9 10:12:16 37° SW 10:13:31 49° WNW 10:17:44 10° N
GEOS 3 Rocket 4.5 10:14:03 28° WSW 10:14:17 28° WSW 10:18:45 10° WNW
STARLINK-1339 3.5 10:14:50 44° SSE 10:15:14 47° SE 10:18:38 10° ENE
STARLINK-1219 4.4 10:11:18 10° NW 10:15:23 54° NNE 10:19:27 10° ESE
Cosmos 468 Rocket 4.3 10:13:04 27° S 10:15:44 59° ESE 10:20:47 10° NNE
STARLINK-1377 3.5 10:16:54 45° S 10:17:24 49° SE 10:20:48 10° ENE
STARLINK-1353 3.4 10:17:34 45° SSE 10:18:00 49° SE 10:21:19 10° ENE
Cosmos 1656 3.8 10:15:30 28° S 10:18:33 70° ESE 10:24:11 10° NNE
STARLINK-1375 3.4 10:19:32 46° S 10:20:04 51° SE 10:23:27 10° ENE
STARLINK-29 3.8 10:19:06 30° WNW 10:20:14 45° NNW 10:23:19 10° NE
STARLINK-1211 4.3 10:16:15 10° NW 10:20:21 57° NNE 10:24:27 10° ESE
Cosmos 1937 Rocket 4.4 10:15:25 10° NNW 10:20:31 49° ENE 10:25:37 10° SE
Meteor 1-21 Rocket 4.2 10:18:58 27° SSW 10:22:07 87° W 10:27:50 10° N
STARLINK-1350 3.3 10:21:44 46° S 10:22:20 54° SE 10:25:41 10° ENE
FALCON 9 DEB 3.3 10:21:44 39° WSW 10:22:50 69° NNW 10:26:18 10° NE
OE (NEXTSAT) 4.3 10:23:09 31° W 10:24:39 81° N 10:28:09 10° E
STARLINK-1245 4.1 10:21:15 10° NW 10:25:22 61° NNE 10:29:28 10° ESE
STARLINK-1352 3.3 10:25:20 44° SSW 10:26:09 59° SE 10:29:37 10° ENE
SL-4 R/B 3.2 10:22:30 13° W 10:26:34 49° NNW 10:31:07 10° ENE
Meteor 2-10 Rocket 3.4 10:22:32 10° NNW 10:27:53 79° W 10:31:31 20° S
ATLAS 2AS CENTAUR R/B 4.3 10:20:58 10° W 10:28:08 34° NNW 10:35:12 10° NNE
STARLINK-1368 3.3 10:27:28 43° SSW 10:28:22 62° SE 10:31:52 10° ENE
STARLINK-1369 3.2 10:28:10 44° SSW 10:29:01 62° SE 10:32:26 10° ENE
Cosmos 2369 4.5 10:25:38 18° S 10:29:30 45° ESE 10:34:51 10° NE
STARLINK-1233 4.0 10:26:12 10° NW 10:30:20 65° NNE 10:34:28 10° ESE
STARLINK-1372 3.2 10:31:48 40° SSW 10:32:53 68° SE 10:36:24 10° ENE
STARLINK-1378 3.2 10:33:59 39° SW 10:35:10 71° SE 10:38:42 10° ENE
COSMOS 2455 4.4 10:30:22 11° W 10:35:11 26° NW 10:40:13 10° NNE
STARLINK-1204 3.9 10:31:12 10° NW 10:35:21 70° NNE 10:39:29 10° ESE
Cosmos 1812 Rocket 4.1 10:31:12 10° NNW 10:35:26 43° W 10:37:14 28° SW
STARLINK-1365 3.1 10:34:20 39° SW 10:35:28 74° SE 10:38:57 10° ENE
UNK 4.4 10:34:02 28° SW 10:35:38 36° W 10:39:55 10° NNW
STARLINK-1329 3.1 10:34:41 38° SW 10:35:53 72° SE 10:39:26 10° ENE
ATLAS CENTAUR R/B 2.0 10:33:19 10° NW 10:36:20 76° SW 10:43:28 10° SE
Cosmos 1455 2.1 10:33:13 10° NNW 10:36:57 65° W 10:38:41 29° S
ATLAS CENTAUR R/B 3.5 10:33:53 10° W 10:36:58 19° NW 10:39:58 10° N
STARLINK-1379 3.1 10:36:11 37° SW 10:37:26 74° SE 10:40:58 10° ENE
STARLINK-1362 3.1 10:36:57 36° SW 10:38:14 75° SE 10:41:47 10° ENE
CZ-4C R/B 2.5 10:36:36 22° S 10:39:38 51° ESE 10:45:13 10° NE
Cosmos 2285 Rocket 4.3 10:33:18 10° NNW 10:39:41 69° ENE 10:45:59 10° SSE
STARLINK-1238 3.8 10:36:09 10° NW 10:40:19 75° NNE 10:44:27 10° ESE
STARLINK-1373 3.1 10:39:12 34° SW 10:40:36 79° SE 10:44:09 10° ENE
STARLINK-1390 3.1 10:40:11 34° SW 10:41:32 80° SE 10:45:03 10° ENE
AQUA 4.1 10:39:14 10° N 10:43:54 55° WNW 10:46:37 24° SW
STARLINK-1201 3.7 10:41:08 10° NW 10:45:18 80° NNE 10:49:27 10° ESE
Cosmos 1825 Rocket 3.5 10:43:59 24° SSW 10:46:29 74° W 10:50:50 10° N
Cosmos 2219 3.5 10:41:19 10° NW 10:46:44 47° WSW 10:51:18 14° S
Cosmos 1980 Rocket 3.4 10:42:35 10° S 10:47:34 36° ESE 10:52:39 10° NE
Cosmos 1709 Rocket 4.2 10:45:06 21° SSW 10:49:04 55° WNW 10:55:05 10° N
STARLINK-1206 3.6 10:46:07 10° WNW 10:50:17 86° NNE 10:54:26 10° ESE
CZ-4B R/B 4.0 10:46:39 10° N 10:51:34 47° WNW 10:54:54 20° SW
Alouette 2 Rocket 4.2 10:46:17 10° NNW 10:52:27 54° W 10:55:34 18° SSW
STARLINK-1212 3.4 10:49:36 10° WNW 10:52:29 35° SW 10:55:21 10° SSE
STARLINK-1105 3.4 10:50:05 10° WNW 10:52:56 34° SW 10:55:47 10° SSE
Cosmos 1400 Rocket 3.6 10:49:05 10° N 10:53:09 55° ENE 10:57:12 10° SSE
STARLINK-1247 3.4 10:51:00 10° WNW 10:53:52 34° SW 10:56:44 10° SSE
STARLINK-1227 3.4 10:51:27 10° WNW 10:54:18 33° SW 10:57:08 10° SSE
STARLINK-1226 3.5 10:52:18 10° WNW 10:55:09 33° SW 10:58:00 10° SSE
STARLINK-1205 3.5 10:51:06 10° WNW 10:55:15 88° SW 10:59:25 10° SE
IRS-1C 4.2 10:49:57 10° NNE 10:55:19 83° ESE 10:59:49 15° SSW
NOSS 7 (H) 4.1 10:54:00 28° SW 10:55:34 88° SE 10:58:32 10° NE
Cosmos 540 Rocket 4.0 10:51:32 14° S 10:55:50 56° ESE 11:00:52 10° NNE
STARLINK-1215 3.5 10:53:16 10° WNW 10:56:07 32° SW 10:58:57 10° SSE
STARLINK-1217 3.6 10:55:04 10° WNW 10:57:52 31° SW 11:00:41 10° SSE
GP-B 3.5 10:53:48 10° N 10:58:03 46° W 11:00:48 20° SSW
Cosmos-2242 3.1 10:54:02 10° NNW 10:58:13 56° W 11:01:23 17° SSW
Cosmos 990 Rocket 4.1 10:53:28 10° NNW 10:58:38 56° WSW 11:03:44 10° S
STARLINK-1229 3.6 10:55:59 10° WNW 10:58:48 31° SW 11:01:35 10° SSE
BREEZE-M DEB (TANK) 4.4 10:56:04 18° SSW 10:59:28 48° SE 11:14:24 10° ENE
STARLINK-1270 3.6 10:56:51 10° WNW 10:59:39 30° SW 11:02:27 10° SSE
Cosmos 2221 4.3 10:56:13 10° N 11:00:08 32° ENE 11:04:03 10° SE
STARLINK-1218 3.5 10:56:03 10° WNW 11:00:13 82° SW 11:04:22 10° SE
CBERS-1 4.2 10:55:37 10° N 11:00:38 57° WNW 11:04:20 18° SW
Cosmos 1703 3.6 10:58:57 22° SW 11:01:14 51° WNW 11:05:07 10° N
STARLINK-1189 3.7 10:58:43 10° WNW 11:01:28 29° SW 11:04:14 10° SSE
Cosmos 2297 Rocket 2.5 10:56:20 10° NW 11:01:41 44° WSW 11:06:59 10° S
STARLINK-1188 3.7 10:59:37 10° WNW 11:02:23 28° SW 11:05:07 10° SSE
STARLINK-1191 3.8 11:02:07 10° WNW 11:04:48 27° SW 11:07:29 10° SSE
STARLINK-1254 3.5 11:01:03 10° WNW 11:05:12 76° SW 11:09:20 10° SE
STARLINK-1221 3.8 11:02:59 10° WNW 11:05:40 26° SW 11:08:19 10° SSE
Cosmos 2082 3.6 11:00:09 10° NNW 11:05:50 80° WSW 11:11:27 10° SSE
STARLINK-1222 3.8 11:03:55 10° WNW 11:06:34 26° SW 11:09:13 10° SSE
STARLINK-1214 3.8 11:04:49 10° WNW 11:07:27 25° SW 11:10:04 10° SSE
Cosmos 841 Rocket 3.6 11:04:57 14° SSW 11:09:26 80° ESE 11:14:42 10° NNE
STARLINK-1231 3.5 11:06:03 10° WNW 11:10:12 70° SW 11:14:19 10° SE
Cosmos 2278 4.0 11:05:45 13° SSW 11:10:49 67° ESE 11:16:27 10° NNE
COBE Rocket 4.0 11:06:34 10° SSE 11:11:29 87° ENE 11:16:34 10° N
IRS-1D 4.1 11:08:56 10° N 11:14:00 45° WNW 11:18:09 15° SW
CZ-2C R/B 4.0 11:10:58 10° NNE 11:14:26 37° E 11:17:54 10° SSE
SL-08 R/B 3.3 11:09:50 10° S 11:14:30 61° WSW 11:19:07 10° NNW
Meteor 1-11 4.2 11:09:43 12° SSW 11:15:01 81° W 11:20:39 10° N
STARLINK-1232 3.5 11:11:03 10° WNW 11:15:10 65° SW 11:19:16 10° SE
Cosmos 2263 Rocket 4.1 11:11:38 10° N 11:16:44 34° NE 11:21:47 10° ESE
USA 129 3.7 11:18:34 10° NE 11:19:42 15° E 11:20:37 10° SE
STARLINK-1208 3.6 11:16:02 10° WNW 11:20:07 59° SW 11:24:11 10° SE
STARLINK-1271 3.7 11:21:02 10° WNW 11:25:06 54° SW 11:29:08 10° SE
H-2A R/B 2.1 11:21:45 10° SSE 11:26:03 87° W 11:30:29 10° NNW
Cosmos 1763 Rocket 4.2 11:23:54 13° SW 11:28:02 40° WNW 11:32:49 10° N
SL-16 R/B 4.0 11:26:33 12° WSW 11:29:45 17° W 11:33:40 10° NW
STARLINK-1154 3.8 11:26:03 10° WNW 11:30:04 50° SW 11:34:04 10° SE
Cosmos 2074 Rocket 4.1 11:24:16 10° SSW 11:30:31 67° W 11:36:49 10° N
STARLINK-1320 4.0 11:27:41 10° W 11:30:38 37° NNW 11:33:35 10° NE
Lacrosse 4 Rocket 1.4 11:26:28 10° NNW 11:30:49 78° WSW 11:35:00 10° SSE
STARLINK-1322 4.0 11:28:02 10° W 11:30:58 37° NNW 11:33:55 10° NE
STARLINK-1324 4.0 11:28:24 10° W 11:31:20 37° NNW 11:34:18 10° NE
STARLINK-1294 4.1 11:28:40 10° W 11:31:36 37° NNW 11:34:35 10° NE
STARLINK-1261 4.1 11:29:04 10° W 11:31:59 37° NNW 11:34:56 10° NE
STARLINK-1325 4.1 11:29:25 10° W 11:32:21 37° NNW 11:35:17 10° NE
Cosmos 2058 4.2 11:28:42 10° SSE 11:32:37 41° E 11:36:36 10° NNE
STARLINK-1333 4.1 11:29:44 10° W 11:32:40 36° NNW 11:35:36 10° NE
STARLINK-1334 4.1 11:30:05 10° W 11:33:01 36° NNW 11:35:57 10° NE
STARLINK-1326 4.1 11:30:26 10° W 11:33:21 36° NNW 11:36:17 10° NE
STARLINK-1323 4.1 11:30:46 10° W 11:33:41 36° NNW 11:36:37 10° NE
CZ-2D R/B 3.9 11:30:40 10° NNW 11:34:00 17° WNW 11:37:20 10° W
STARLINK-1349 4.1 11:31:05 10° W 11:34:01 36° NNW 11:36:56 10° NE
STARLINK-1336 4.1 11:31:29 10° W 11:34:24 36° NNW 11:37:19 10° NE
Cosmos 2150 Rocket 4.3 11:29:20 10° NNW 11:34:32 73° ENE 11:39:40 10° SSE
STARLINK-1331 4.1 11:31:47 10° W 11:34:42 35° NNW 11:37:37 10° NE
ADEOS II 2.8 11:30:08 10° N 11:34:58 38° WNW 11:39:45 10° SW
STARLINK-1197 3.9 11:31:03 10° WNW 11:35:01 46° SW 11:38:58 10° SSE
STARLINK-1344 4.1 11:32:08 10° W 11:35:02 35° NNW 11:37:58 10° NE
STARLINK-1343 4.1 11:32:28 10° W 11:35:23 35° NNW 11:38:18 10° NE
STARLINK-1346 4.2 11:32:47 10° W 11:35:44 35° NNW 11:38:41 10° NE
STARLINK-1328 4.2 11:33:11 10° W 11:36:05 35° NNW 11:39:00 10° NE
STARLINK-1354 4.2 11:33:29 10° W 11:36:23 35° NNW 11:39:18 10° NE
STARLINK-1347 4.2 11:33:52 10° W 11:36:46 35° NNW 11:39:40 10° NE
STARLINK-1357 4.2 11:34:11 10° W 11:37:05 34° NNW 11:40:00 10° NE
Cosmos 2227 Rocket 3.2 11:32:26 10° NW 11:37:06 27° WSW 11:41:45 10° SSW
STARLINK-1236 4.4 11:33:15 10° NW 11:37:20 56° NNE 11:41:25 10° ESE
STARLINK-1335 4.2 11:34:32 10° W 11:37:25 34° NNW 11:40:19 10° NE
STARLINK-1327 4.2 11:34:51 10° W 11:37:45 34° NNW 11:40:39 10° NE
SJ 16-02 2.9 11:34:53 10° NW 11:37:51 18° W 11:40:46 10° SW
STARLINK-1340 4.2 11:35:13 10° W 11:38:07 34° NNW 11:41:01 10° NE
STARLINK-1356 4.2 11:35:34 10° W 11:38:27 34° NNW 11:41:21 10° NE
STARLINK-1345 4.2 11:35:55 10° W 11:38:48 34° NNW 11:41:42 10° NE
Cosmos 1697 Rocket 3.1 11:33:38 11° SW 11:38:52 52° WNW 11:44:25 10° NNE
STARLINK-1355 4.2 11:36:14 10° W 11:39:07 34° NNW 11:42:00 10° NE
STARLINK-1321 4.2 11:36:34 10° W 11:39:27 33° NNW 11:42:20 10° NE
STARLINK-1358 4.2 11:36:57 10° W 11:39:49 33° NNW 11:42:43 10° NE
STARLINK-1198 4.0 11:36:01 10° WNW 11:39:57 42° SW 11:43:51 10° SSE
STARLINK-1332 4.3 11:37:15 10° W 11:40:08 33° NNW 11:43:01 10° NE
CZ-4B R/B 3.6 11:37:50 10° SE 11:40:28 27° ENE 11:43:07 10° N
STARLINK-1348 4.3 11:37:37 10° W 11:40:30 33° NNW 11:43:23 10° NE
USA 234 3.8 11:34:20 10° ENE 11:40:42 52° SE 11:47:03 10° SSW
STARLINK-1330 4.3 11:37:56 10° W 11:40:48 33° NNW 11:43:41 10° NE
SL-24 DEB 4.4 11:36:10 10° N 11:40:50 75° E 11:45:25 10° S
STARLINK-1363 4.3 11:38:17 10° W 11:41:09 33° NNW 11:44:02 10° NE
Iridium 2 3.8 11:37:28 10° NNW 11:41:10 55° W 11:44:51 10° SSW
STARLINK-1337 4.3 11:38:38 10° W 11:41:30 33° NNW 11:44:23 10° NE
STARLINK-1342 4.3 11:38:58 10° W 11:41:50 32° NNW 11:44:42 10° NE
STARLINK-1338 4.3 11:38:42 10° W 11:41:59 39° NNW 11:45:18 10° NE
STARLINK-1364 4.3 11:39:18 10° W 11:42:10 32° NNW 11:45:02 10° NE
Resurs 1-4 Rocket 4.1 11:39:22 10° NNW 11:42:13 15° WNW 11:45:05 10° W
Cosmos 2184 Rocket 4.2 11:36:27 10° SSW 11:42:31 56° WNW 11:48:35 10° N
STARLINK-1376 4.3 11:39:40 10° W 11:42:32 32° NNW 11:45:24 10° NE
STARLINK-1360 4.3 11:39:57 10° W 11:42:49 32° NNW 11:45:41 10° NE
STARLINK-1361 4.3 11:40:24 10° W 11:43:15 32° NNW 11:46:07 10° NE
STARLINK-1367 4.3 11:40:37 10° W 11:43:30 32° NNW 11:46:25 10° NE
ARIANE 5 R/B 2.9 11:38:45 10° N 11:43:38 49° WNW 11:48:26 10° SW
STARLINK-1366 4.3 11:41:02 10° W 11:43:53 32° NNW 11:46:44 10° NE
STARLINK-1199 4.1 11:41:04 10° WNW 11:44:56 38° SW 11:48:47 10° SSE
ERBS 4.4 11:42:13 10° NW 11:45:16 31° NNE 11:48:19 10° E
SL-16 R/B 3.8 11:40:33 10° SSE 11:45:29 32° ESE 11:50:27 10° NE
STARLINK-1371 4.3 11:42:55 10° W 11:46:11 37° NNW 11:49:30 10° NE
STARLINK-43 4.1 11:43:45 10° SSW 11:47:15 42° SE 11:50:44 10° ENE
STARLINK-1269 4.2 11:43:11 10° NW 11:47:18 64° NNE 11:51:25 10° ESE
STARLINK-1341 4.4 11:45:03 10° W 11:48:19 36° NNW 11:51:36 10° NE
Cosmos 1842 Rocket 3.7 11:45:23 10° NNW 11:49:49 61° W 11:54:13 10° S
STARLINK-1210 4.2 11:46:05 10° WNW 11:49:53 35° SW 11:53:39 10° SSE
Spot 4 Rocket 4.2 11:45:15 10° N 11:50:19 59° WNW 11:55:21 10° SSW
STARLINK-1374 4.4 11:47:12 10° W 11:50:27 36° NNW 11:53:45 10° NE
ERS-2 3.1 11:47:55 10° SSW 11:51:08 29° W 11:54:23 10° NW
STARLINK-1200 4.0 11:48:10 10° NW 11:52:19 68° NNE 11:56:27 10° ESE
STARLINK-1339 4.5 11:49:22 10° W 11:52:37 35° NNW 11:55:53 10° NE
MSX 4.1 11:47:34 10° NNE 11:53:21 74° ESE 11:59:05 10° S
Cosmos 1825 4.5 11:51:36 10° SE 11:54:42 25° E 11:57:50 10° NNE
STARLINK-1219 4.3 11:51:06 10° WNW 11:54:49 32° SW 11:58:31 10° SSE
STARLINK-1353 4.5 11:51:52 10° W 11:54:59 33° NNW 11:58:09 10° NE
